Location: Zagreb
(45.8000°N, 16.0000°E)
Time: 15:16:41
(UTC+02:00)

Tiros 1 despin weight - Pass Details

Date: 15 August 2022
Orbit: 590 x 639 km, 48.2° (Epoch: 23 September)

Event Time Altitude Azimuth Distance (km) Brightness Sun altitude
Rises 10:46:10 0° 203° (SSW) 2,871 ? 47.5°
Reaches altitude 10° 10:48:56 10° 187° (S) 1,959 ? 47.9°
Maximum altitude 10:52:16 20° 139° (SE) 1,392 ? 48.3°
Drops below altitude 10° 10:55:34 10° 91° (E) 1,945 ? 48.7°
Sets 10:58:17 0° 75° (ENE) 2,842 ? 49.1°
